EXPRESS-AM2

Last updated on Feb. 26, 2017, 12:17 a.m. UTC

1 28629U 05010A   17056.57890998  .00000032  00000-0  00000+0 0  9991
2 28629   2.1309  76.9689 0016531  25.5023 340.5369  0.99047475 43622
UTC
Height (km)
Latitude
Longitude
Inclination
Orbital Period
UTC large
Height (km)
Speed (km/s)
/
Latitude / Longitude
Inclination (degrees)
Orbital Period (minutes)
Azimuth
Elevation
Range (km)
Doppler Factor
iOS Compass Heading
iOS Angle

Next 30 passes for location: Hong Kong

Rise time Rise Azimuth (degrees) Set time Set Azimuth (degrees) Duration Max altitude (degrees)

No matching passes for this satellites